Temperature
27 27 26 26 25 24 24 24 24 25 25 25 25 24 24 23 23 22 22 21 20 19 19 18 18 17 17 17 16 15 15 14 14 13 13 13 12 12 11 11 11 11 11 11
26 27 26 26 26 26 25 25 25 25 25 26 25 24 24 23 23 22 22 21 20 20 19 19 18 18 18 17 16 16 15 15 14 14 13 13 12 12 12 11 11 11 11 11
25 27 26 25 26 26 26 25 25 24 25 25 25 24 24 23 22 22 22 21 21 20 19 19 19 19 18 18 17 16 16 15 15 14 14 13 12 12 12 11 11 11 11 11
25 26 24 27 28 28 26 26 26 26 25 25 25 24 23 22 22 22 21 21 20 20 19 19 19 19 18 18 17 17 17 16 15 15 14 13 13 12 12 12 11 11 11 11
25 25 26 27 27 27 26 25 26 26 26 25 25 24 23 22 22 21 21 20 20 20 19 19 19 19 19 19 18 18 17 16 16 15 14 14 13 13 12 12 12 12 11 11
24 24 24 27 27 27 26 25 27 26 26 25 25 23 22 21 21 21 20 20 20 19 19 19 19 19 18 18 18 18 17 17 16 15 15 14 14 14 13 13 12 12 12 12
23 24 26 26 27 26 24 25 27 26 26 25 25 23 22 21 20 20 20 19 19 19 19 19 18 18 18 18 18 18 17 17 16 16 15 15 15 14 14 13 13 12 12 12
23 23 24 25 25 25 25 26 26 26 25 25 23 22 21 20 20 19 19 19 19 18 18 18 18 18 18 18 18 17 17 17 16 16 16 15 15 15 14 14 13 13 13 13
25 25 25 25 25 25 25 26 25 25 24 23 23 22 21 20 19 19 19 19 18 18 18 18 18 18 17 17 17 17 17 16 16 16 16 15 15 15 15 14 14 13 13 13
26 25 25 25 24 23 23 24 24 24 23 23 22 21 20 19 18 18 18 18 17 17 17 17 17 17 17 17 16 16 16 16 16 16 16 16 16 15 15 15 14 14 14 13
25 26 26 24 24 23 22 23 22 22 22 22 21 21 20 18 17 17 17 16 16 16 16 16 16 16 16 16 16 16 15 15 15 15 15 15 15 15 15 15 15 15 14 14
25 26 26 25 24 23 22 21 21 21 20 20 20 19 18 17 16 16 16 15 15 15 15 15 15 15 15 15 15 15 14 14 14 14 14 15 15 15 15 15 15 15 15 14
26 26 26 25 24 23 21 21 20 20 19 19 18 18 17 16 15 15 14 14 14 14 13 13 13 13 14 14 13 13 13 12 13 13 13 13 14 14 14 14 14 14 14 14
26 25 23 22 22 21 21 20 19 19 18 17 17 16 16 15 14 14 13 13 13 13 12 12 12 12 12 12 12 12 11 11 11 12 12 12 12 12 13 13 13 14 14 14
24 23 23 22 21 20 19 19 18 17 17 16 15 15 14 14 13 13 12 12 12 11 11 11 11 11 11 11 11 11 10 10 10 10 11 11 11 11 12 12 13 13 13 14
23 22 22 21 20 19 18 17 17 16 15 15 14 14 13 13 12 12 11 11 11 10 10 10 10 9 9 10 10 9 9 9 9 9 9 10 10 10 10 11 11 12 12 12
22 21 20 20 19 18 17 17 16 15 15 14 13 13 12 11 11 11 10 10 10 9 9 9 9 8 8 9 9 8 8 8 8 8 8 8 9 9 9 9 10 10 10 11
23 22 21 20 19 18 17 16 16 15 14 13 12 12 11 11 10 10 9 9 9 8 8 8 8 7 8 8 8 7 7 7 7 7 7 7 8 8 8 8 8 8 9 9
22 22 21 20 19 17 16 15 15 14 13 12 11 11 11 10 10 9 9 8 8 8 7 7 7 7 7 7 7 7 7 7 7 7 7 7 7 7 7 7 7 7 7 8
20 20 20 19 17 16 15 14 13 12 11 11 11 10 10 9 9 9 8 8 7 7 7 7 7 7 7 7 7 6 6 6 6 6 6 6 6 6 6 6 6 6 6 6
18 18 17 16 15 14 14 13 12 11 10 10 10 9 9 9 8 8 8 7 7 7 7 7 6 6 7 7 6 6 6 6 6 6 6 6 6 6 5 5 5 5 5 5
15 15 14 14 13 12 12 11 10 10 9 9 9 9 8 8 8 8 7 7 7 7 6 6 6 6 6 6 6 6 6 6 6 6 6 5 5 5 5 5 5 5 5 4
13 13 12 12 11 11 10 10 9 9 9 9 8 8 8 8 7 7 7 7 6 6 6 6 6 6 6 6 6 6 5 6 6 5 5 5 5 5 5 5 5 4 4 4
12 11 11 10 10 10 9 9 8 8 8 8 8 7 7 7 7 7 7 7 6 6 6 6 6 6 6 6 5 5 5 5 5 5 5 5 4 4 4 4 4 4 4 4
11 10 10 10 10 9 9 8 8 7 7 7 7 7 7 7 7 7 7 6 6 6 6 5 5 5 5 5 5 5 5 5 5 4 4 4 4 4 4 4 4 4 3 3
10 10 9 9 9 9 8 8 7 7 7 7 7 7 7 7 6 6 6 6 6 6 5 5 5 5 5 5 5 5 5 4 4 4 4 4 4 4 3 3 3 3 3 3
9 9 9 9 8 8 8 8 7 7 7 7 7 7 7 7 7 6 6 6 6 5 5 5 5 5 5 5 4 4 4 4 4 3 3 3 3 3 3 3 2 2 2 2
Wind_Speed
11 3 2 5 8 10 11 10 8 5 5 4 5 4 2 1 2 3 4 6 7 6 5 6 5 4 3 2 3 1 1 2 1 2 3 3 3 4 4 6 7 6 7 7
11 7 6 9 10 11 12 11 10 8 6 3 5 3 1 2 3 3 4 5 6 7 6 6 6 6 6 5 5 3 3 3 2 1 2 3 4 3 4 5 6 5 6 6
11 10 8 9 15 15 12 11 8 7 1 5 1 1 2 3 2 1 1 3 4 4 4 3 3 4 2 3 3 3 4 3 3 2 1 2 4 4 5 6 5 5 5 5
10 8 9 4 2 8 11 9 7 5 0 2 1 3 3 2 1 2 0 2 3 4 4 4 5 4 4 5 5 5 4 3 2 3 3 3 4 5 5 4 4 5 5 5
8 10 10 5 5 7 8 8 9 8 5 4 3 4 5 5 3 2 2 2 2 2 3 4 4 2 3 4 4 3 3 3 2 2 3 4 4 5 5 4 4 5 6 6
7 7 8 3 12 9 6 6 10 9 7 6 5 3 5 6 5 4 4 2 2 1 2 2 1 1 3 4 3 2 2 3 3 3 3 5 5 5 4 4 5 5 6 6
10 8 6 9 12 9 6 4 11 10 7 6 3 6 7 6 6 4 3 2 1 1 1 1 1 2 4 5 4 1 2 2 2 3 5 6 6 5 5 5 6 6 7 7
8 9 6 11 9 7 2 7 9 8 7 6 8 9 8 7 6 4 3 2 1 0 1 1 1 2 4 5 4 2 0 3 4 6 6 6 6 6 6 6 7 7 7 7
6 2 6 7 5 4 3 5 7 7 7 7 7 7 8 7 6 4 3 3 2 0 1 2 1 1 2 4 5 5 4 5 6 7 7 7 7 7 6 6 6 6 6 5
6 6 10 7 6 5 2 1 5 6 6 6 7 8 8 7 6 5 5 5 4 3 3 3 4 5 5 6 6 6 7 6 6 6 7 7 7 6 6 6 6 5 5 5
9 7 5 8 8 9 7 5 6 6 5 5 7 8 8 8 7 6 5 5 5 5 5 6 8 9 9 8 8 8 8 7 7 7 7 6 6 6 7 7 7 7 6 5
7 8 8 10 13 12 11 10 9 8 7 6 7 8 9 8 7 6 6 6 6 7 7 8 8 9 9 9 9 8 7 7 6 6 7 6 6 6 9 10 12 14 13 10
10 6 3 3 12 14 12 11 10 10 10 8 7 9 10 9 7 7 7 7 7 7 7 8 8 8 9 9 9 8 8 7 6 7 7 7 7 7 7 8 11 12 13 13
7 5 5 6 7 10 11 11 10 10 10 10 9 9 10 9 8 8 7 7 7 7 7 7 7 8 8 9 9 8 8 8 8 7 7 7 7 7 7 7 6 5 9 15
5 7 6 8 10 11 10 11 12 11 11 11 10 10 10 10 9 8 7 7 7 7 7 7 7 7 7 9 9 8 7 6 6 7 7 7 7 7 7 7 7 6 5 5
9 8 7 10 13 14 14 14 14 14 13 12 11 10 11 11 9 8 7 7 7 7 6 6 6 6 7 8 9 7 6 10 9 7 7 7 8 8 8 8 8 8 7 7
12 13 12 13 15 16 17 16 14 14 14 13 12 12 12 11 9 8 7 7 8 7 6 6 5 6 7 8 8 6 6 8 11 8 7 7 8 8 8 8 9 9 9 11
15 15 15 15 15 15 15 15 14 15 14 14 14 12 12 11 9 8 7 8 8 7 6 5 5 5 6 8 8 6 6 6 6 7 7 7 8 7 8 8 10 10 9 10
12 12 12 13 14 15 14 14 14 14 14 14 13 12 10 10 9 8 7 7 6 6 5 4 5 5 6 9 10 6 6 6 6 6 6 8 8 7 7 8 8 9 9 10
4 4 7 10 13 13 13 13 14 14 14 13 13 12 11 10 9 8 8 6 5 4 4 3 4 5 6 8 11 6 6 6 6 6 5 6 6 7 7 7 7 8 8 8
1 3 7 10 12 12 13 14 14 13 13 12 12 11 10 9 8 8 7 6 6 4 1 2 1 3 5 8 11 6 5 5 5 5 5 5 6 6 6 6 6 6 6 6
3 6 9 11 12 12 12 13 13 13 12 11 12 11 10 8 8 6 5 4 6 4 1 1 2 4 7 9 6 6 6 5 5 5 5 5 5 6 6 6 5 5 5 5
4 7 9 11 12 12 12 12 13 12 11 11 10 10 9 7 6 6 6 5 6 5 1 1 2 5 9 7 6 7 6 6 5 5 5 6 6 6 6 7 6 5 5 5
7 8 9 10 11 12 12 12 11 9 9 8 8 8 7 5 4 3 4 7 7 4 2 2 3 7 8 5 6 6 6 5 5 5 5 6 6 6 6 6 6 6 6 7
7 9 10 10 10 9 10 11 11 9 8 7 7 7 5 4 4 4 3 5 7 6 3 4 7 8 6 6 5 5 5 5 6 6 6 6 6 6 6 6 6 7 7 7
6 6 6 7 7 6 7 8 7 7 6 6 6 6 5 4 5 4 3 3 4 5 4 4 5 6 4 4 5 5 5 6 7 6 6 7 7 8 7 7 9 8 7 8
7 6 5 5 6 6 6 6 7 7 7 6 6 6 5 5 5 5 4 3 2 3 3 3 3 4 4 4 5 5 5 6 6 6 6 7 7 7 8 9 8 8 8 9
Wind_Direction
278 208 225 242 202 199 224 247 274 332 14 12 62 77 75 138 181 192 195 179 181 184 200 200 197 208 242 163 144 193 266 284 309 334 324 350 336 331 335 332 333 339 343 339
276 249 234 249 240 214 216 236 258 285 293 96 95 122 187 197 166 191 200 192 185 188 202 210 196 196 214 188 174 194 220 228 193 251 325 340 320 334 333 317 312 324 329 332
271 246 219 248 234 222 216 217 232 250 251 92 81 75 46 38 41 299 196 164 175 194 204 215 215 202 200 142 149 202 232 214 166 173 276 295 304 309 294 292 300 311 313 316
264 248 229 247 35 192 200 209 210 235 268 114 120 122 140 154 189 303 37 141 164 183 195 209 226 208 183 171 198 213 215 172 166 192 219 243 261 273 276 286 304 302 298 298
255 261 257 207 174 177 185 208 200 202 201 177 158 175 160 128 105 76 58 87 132 174 219 214 221 233 234 217 207 206 180 161 196 216 222 236 254 267 274 276 282 288 290 283
255 257 264 274 148 151 178 226 185 181 176 169 189 211 125 106 100 90 76 68 72 138 259 282 334 3 311 296 282 251 186 174 190 217 239 245 249 258 269 274 272 279 282 275
256 263 264 108 122 141 196 230 157 163 160 167 153 90 109 107 98 93 99 94 92 267 289 334 341 307 280 282 288 277 152 167 209 238 246 245 242 245 258 266 271 273 279 274
225 240 239 138 149 177 138 109 132 142 143 130 105 106 110 105 98 95 104 113 135 268 295 299 277 284 287 299 320 338 236 212 231 241 250 256 237 236 242 253 264 269 269 273
214 199 104 145 150 106 95 153 139 137 128 127 133 129 119 110 101 86 77 82 73 30 345 338 335 315 309 325 336 326 293 254 241 241 241 239 238 239 240 241 246 258 264 269
250 167 174 184 150 148 185 181 110 117 132 153 149 132 123 115 105 90 70 59 42 37 37 25 24 32 21 358 342 327 310 295 277 264 257 244 231 229 233 238 244 253 260 266
239 248 188 178 188 182 180 177 152 151 161 156 138 130 125 115 103 94 83 72 59 53 43 35 35 36 24 7 356 340 323 313 305 294 282 272 256 235 233 231 228 232 241 246
223 236 228 201 192 186 181 183 172 163 152 140 139 132 119 110 104 95 85 74 66 56 49 45 42 35 19 4 355 345 335 332 329 324 319 312 299 286 255 245 247 239 235 236
248 258 307 136 163 171 178 179 171 163 154 145 132 126 123 119 114 105 92 80 72 63 54 50 45 34 15 1 353 344 338 342 339 331 325 318 312 305 301 287 264 255 250 246
220 156 131 134 150 167 174 168 162 155 149 144 136 130 126 123 116 107 98 90 80 71 61 54 46 31 10 359 351 344 344 354 349 331 323 318 314 310 306 303 301 285 257 245
198 179 176 162 163 173 168 163 162 160 152 145 141 139 136 130 122 112 103 96 88 75 61 53 43 25 10 4 353 347 347 353 340 325 321 325 328 326 322 319 315 310 306 282
210 197 194 179 178 178 176 176 175 169 160 153 150 144 134 125 119 115 109 101 93 80 63 52 36 19 20 12 351 344 341 352 350 337 342 350 346 342 343 344 343 343 341 343
212 201 200 197 190 187 186 185 179 168 161 157 151 141 136 134 132 129 124 113 101 89 72 55 25 18 32 21 352 344 347 352 355 356 359 358 350 350 354 354 354 353 350 351
228 212 203 200 196 191 188 184 174 164 159 152 147 148 149 146 140 135 130 124 115 102 81 56 21 13 36 30 354 342 350 355 355 357 356 358 352 356 1 1 359 358 355 358
233 216 203 193 187 184 182 175 164 155 149 149 152 152 145 138 136 135 128 119 115 107 90 51 3 18 31 25 360 336 347 354 355 354 355 354 356 357 358 359 358 359 1 3
246 203 181 172 168 168 165 157 151 148 149 153 149 143 140 139 140 137 131 122 106 89 75 42 0 21 23 7 347 327 337 346 346 346 350 350 349 351 353 354 354 355 356 358
18 124 135 141 145 147 149 149 148 149 150 149 148 146 143 142 144 143 142 137 120 92 20 306 348 40 25 350 327 318 326 332 333 334 337 336 334 336 337 342 344 345 347 349
84 119 130 136 139 143 145 146 147 148 147 147 146 144 142 144 144 139 131 127 129 133 258 311 60 39 356 338 312 309 314 319 322 323 323 323 321 322 322 325 325 327 329 329
136 135 138 143 147 147 145 146 148 149 148 147 146 148 152 151 154 157 156 144 131 129 249 342 40 345 334 322 304 304 308 314 319 320 321 319 316 313 310 310 309 311 310 311
152 151 152 153 153 152 152 149 144 144 144 143 146 149 146 142 151 154 129 131 139 150 239 253 280 296 304 290 287 295 305 311 314 317 319 310 302 299 298 300 301 300 299 302
160 160 161 160 159 156 151 146 144 146 148 149 152 155 161 158 150 138 127 139 156 179 240 267 277 279 274 274 285 300 310 310 310 306 294 292 295 299 300 302 303 301 299 296
161 157 155 160 155 147 149 151 154 156 159 160 163 165 167 153 146 146 167 206 216 211 230 252 262 267 274 292 306 309 308 309 308 305 306 310 307 308 306 307 307 305 301 299
154 145 142 150 144 150 156 159 161 168 171 171 171 171 173 168 165 172 183 205 230 240 251 264 277 289 297 302 304 306 305 304 305 307 309 308 308 308 308 309 308 305 304 303
Height
1482 1482 1486 1490 1493 1498 1502 1502 1504 1497 1497 1494 1494 1497 1499 1500 1501 1503 1504 1505 1507 1508 1510 1510 1511 1511 1512 1511 1510 1509 1508 1506 1505 1503 1501 1500 1497 1495 1493 1491 1489 1487 1485 1483
1486 1480 1484 1489 1487 1489 1494 1495 1496 1495 1496 1490 1493 1496 1497 1498 1499 1501 1502 1503 1505 1506 1507 1508 1509 1509 1509 1509 1508 1507 1507 1505 1504 1502 1500 1498 1496 1494 1492 1490 1488 1486 1484 1481
1491 1479 1484 1492 1481 1482 1485 1487 1490 1495 1492 1489 1492 1494 1496 1497 1498 1499 1500 1501 1502 1504 1505 1506 1507 1508 1508 1508 1507 1506 1505 1504 1503 1501 1499 1497 1495 1493 1491 1489 1487 1485 1482 1480
1489 1486 1500 1478 1464 1467 1477 1480 1483 1485 1487 1489 1491 1493 1495 1497 1498 1498 1499 1500 1501 1502 1503 1504 1505 1506 1506 1506 1505 1504 1504 1503 1501 1500 1498 1496 1494 1492 1490 1488 1486 1483 1481 1479
1488 1490 1482 1471 1466 1467 1475 1480 1478 1482 1485 1487 1489 1492 1494 1495 1496 1497 1498 1499 1499 1500 1502 1503 1503 1504 1504 1504 1504 1503 1502 1501 1500 1498 1496 1495 1492 1491 1489 1486 1484 1482 1480 1477
1485 1492 1491 1467 1460 1465 1473 1481 1473 1478 1481 1485 1487 1491 1494 1494 1495 1496 1497 1497 1498 1499 1500 1501 1502 1502 1502 1502 1502 1501 1500 1499 1497 1496 1495 1493 1491 1489 1487 1485 1482 1480 1478 1476
1489 1488 1474 1463 1462 1468 1485 1479 1469 1474 1479 1483 1485 1488 1492 1493 1494 1495 1495 1496 1497 1498 1499 1499 1500 1500 1500 1500 1500 1499 1497 1496 1495 1494 1492 1490 1488 1487 1485 1482 1480 1478 1476 1474
1483 1488 1479 1464 1465 1470 1471 1467 1469 1474 1478 1481 1484 1487 1490 1491 1493 1494 1494 1495 1495 1496 1497 1497 1498 1498 1498 1498 1497 1496 1494 1493 1492 1490 1489 1487 1486 1484 1482 1480 1478 1476 1474 1472
1467 1469 1462 1462 1464 1466 1468 1469 1471 1474 1477 1481 1483 1486 1488 1490 1491 1492 1493 1493 1494 1495 1495 1496 1496 1495 1495 1494 1493 1492 1491 1489 1488 1486 1485 1483 1482 1480 1478 1477 1475 1473 1472 1470
1457 1457 1460 1461 1463 1465 1467 1469 1471 1474 1476 1479 1482 1484 1486 1488 1489 1490 1491 1491 1492 1493 1493 1493 1493 1492 1492 1490 1489 1488 1487 1485 1484 1483 1481 1480 1478 1476 1475 1473 1472 1470 1469 1467
1455 1454 1456 1458 1460 1463 1465 1468 1470 1472 1475 1477 1480 1482 1484 1486 1487 1488 1489 1490 1490 1491 1491 1491 1490 1489 1488 1487 1486 1484 1483 1481 1480 1479 1477 1476 1474 1473 1471 1469 1468 1467 1465 1464
1452 1450 1451 1452 1455 1459 1462 1464 1467 1470 1472 1475 1477 1479 1481 1483 1485 1486 1487 1488 1488 1489 1489 1488 1487 1486 1485 1484 1482 1481 1479 1477 1476 1474 1472 1471 1469 1467 1466 1465 1464 1463 1461 1460
1444 1445 1446 1446 1449 1453 1457 1461 1464 1467 1469 1472 1474 1476 1478 1480 1482 1484 1485 1486 1486 1487 1487 1486 1485 1484 1483 1481 1480 1478 1476 1474 1472 1470 1468 1466 1464 1463 1461 1460 1459 1458 1457 1455
1439 1441 1444 1446 1448 1451 1455 1458 1461 1464 1466 1469 1471 1473 1475 1478 1480 1481 1483 1484 1484 1484 1484 1484 1483 1482 1480 1479 1477 1476 1474 1472 1469 1467 1465 1463 1461 1459 1457 1455 1454 1452 1452 1451
1436 1437 1440 1443 1446 1449 1452 1454 1457 1460 1463 1465 1468 1470 1473 1475 1477 1479 1480 1481 1482 1482 1482 1482 1481 1480 1479 1477 1475 1473 1472 1469 1467 1465 1462 1460 1458 1456 1454 1453 1451 1449 1448 1446
1432 1434 1437 1439 1441 1444 1447 1450 1453 1456 1459 1462 1465 1468 1470 1472 1474 1476 1478 1479 1480 1480 1480 1480 1480 1479 1477 1475 1473 1472 1470 1469 1466 1464 1461 1459 1456 1454 1452 1450 1448 1446 1445 1443
1426 1428 1431 1433 1436 1438 1441 1444 1448 1451 1455 1458 1461 1464 1467 1469 1472 1475 1476 1478 1478 1479 1479 1479 1478 1478 1476 1474 1472 1471 1470 1468 1466 1463 1461 1458 1456 1454 1452 1449 1447 1445 1443 1441
1418 1420 1422 1426 1429 1433 1437 1441 1444 1448 1451 1454 1458 1461 1464 1467 1470 1472 1474 1476 1477 1477 1477 1477 1477 1477 1475 1473 1472 1470 1469 1467 1465 1463 1461 1458 1456 1454 1452 1449 1447 1444 1442 1439
1410 1413 1416 1419 1423 1428 1432 1437 1440 1444 1447 1451 1455 1459 1462 1465 1467 1470 1472 1474 1475 1476 1476 1476 1476 1475 1474 1473 1471 1470 1468 1467 1465 1463 1461 1459 1456 1454 1452 1449 1447 1444 1441 1438
1404 1407 1410 1414 1419 1424 1429 1433 1437 1441 1444 1448 1452 1456 1459 1462 1465 1468 1470 1472 1473 1474 1474 1475 1474 1474 1473 1471 1470 1469 1468 1466 1465 1463 1461 1458 1456 1454 1452 1449 1446 1444 1441 1438
1403 1405 1408 1412 1417 1422 1427 1431 1435 1439 1443 1447 1450 1454 1457 1461 1464 1466 1468 1470 1471 1472 1472 1473 1473 1472 1471 1470 1468 1467 1467 1465 1464 1462 1460 1458 1456 1453 1451 1448 1446 1443 1440 1437
1406 1408 1410 1413 1418 1422 1427 1431 1434 1438 1442 1446 1449 1452 1456 1459 1462 1464 1466 1468 1469 1470 1470 1471 1471 1470 1469 1468 1466 1466 1465 1464 1462 1461 1459 1457 1454 1452 1450 1447 1444 1441 1439 1436
1410 1411 1414 1417 1420 1424 1428 1431 1434 1438 1441 1444 1447 1451 1454 1457 1460 1462 1465 1466 1467 1467 1468 1469 1468 1467 1466 1465 1464 1463 1463 1462 1460 1458 1456 1454 1452 1450 1447 1445 1442 1439 1436 1433
1412 1414 1417 1420 1423 1425 1429 1432 1435 1438 1441 1444 1447 1450 1453 1456 1459 1461 1462 1464 1464 1465 1466 1466 1465 1465 1463 1462 1461 1461 1460 1459 1457 1455 1453 1451 1448 1446 1444 1441 1438 1435 1432 1429
1414 1416 1418 1421 1424 1426 1429 1432 1435 1437 1441 1443 1446 1449 1452 1454 1457 1459 1460 1461 1462 1462 1463 1463 1462 1462 1461 1460 1459 1458 1457 1455 1454 1451 1449 1447 1445 1442 1440 1437 1434 1431 1428 1425
1414 1416 1419 1422 1424 1427 1429 1431 1434 1437 1440 1443 1445 1448 1450 1452 1454 1456 1457 1459 1460 1460 1460 1460 1459 1459 1458 1457 1456 1455 1453 1451 1449 1447 1445 1443 1440 1437 1435 1432 1429 1425 1422 1419
1414 1416 1419 1421 1424 1426 1428 1431 1433 1436 1438 1441 1444 1446 1448 1450 1452 1454 1455 1456 1457 1457 1457 1457 1456 1456 1455 1453 1452 1450 1449 1447 1445 1442 1440 1437 1435 1432 1429 1426 1422 1419 1415 1412